Location: NJAA Observatory
(40.6819°N, 74.8979°W)
Time: 03:43:13
(UTC-05:00)

Daily predictions for brighter satellites

Satellite Brightness Start Highest point End
(mag) Time Altitude Azimuth Time Altitude Azimuth Time Altitude Azimuth
CENTAUR R/B 3.0 03:53:27 77° NW 03:54:09 88° WSW 04:02:42 10° SSE
Cosmos 1697 Rocket 3.5 04:02:00 42° SE 04:02:58 46° ESE 04:08:18 10° NE
Cosmos 2227 Rocket 3.7 04:10:03 25° SSE 04:10:03 25° SSE 04:12:15 10° SSE
Okean O Rocket 3.1 04:07:41 10° NNE 04:10:09 32° NNE 04:10:09 32° NNE
Lacrosse 5 rocket 3.2 04:14:45 27° NE 04:14:45 27° NE 04:17:34 10° E
Cosmos 1821 Rocket 4.2 04:13:04 14° S 04:18:23 67° E 04:24:33 10° NNE
Cosmos 2297 Rocket 2.7 04:22:28 45° S 04:22:28 45° S 04:26:19 10° SSE
Cosmos 2298 Rocket 4.0 04:26:27 71° N 04:26:27 71° N 04:31:14 10° NNE
CZ-4B R/B 3.2 04:24:28 10° NNE 04:29:56 79° ESE 04:32:44 30° S
CZ-3 R/B 3.5 04:27:10 32° WSW 04:35:06 46° SSW 04:42:14 10° ESE
BREEZE-M DEB (TANK) 4.3 04:39:18 40° SSW 04:39:18 40° SSW 04:48:48 10° SE
CZ-4B DEB 4.1 04:37:19 10° N 04:42:46 70° WNW 04:44:18 47° SW
Cosmos 2150 Rocket 3.9 04:43:17 63° WNW 04:43:17 63° WNW 04:48:25 10° NNE
Cosmos 2082 3.8 04:48:38 51° WSW 04:48:38 51° WSW 04:54:04 10° S
Cosmos 1000 Rocket 4.4 04:43:31 10° NNW 04:49:42 65° W 04:55:47 10° S
IDEFIX/ARIANE 42P 3.5 04:46:15 10° NNE 04:51:20 49° E 04:56:22 10° S
Cosmos 2278 3.9 04:51:08 46° WNW 04:51:29 47° WNW 04:56:59 10° NNE
Cosmos 2239 Rocket 4.4 04:49:03 10° SSW 04:55:07 64° W 05:01:14 10° N
CZ-2C R/B 3.9 04:53:04 10° NNE 04:57:50 39° E 05:02:39 10° SSE
PAYLOAD B 4.3 04:52:37 10° N 04:57:55 50° WNW 04:59:33 38° WSW
COSMOS 2455 3.9 04:52:21 10° NNW 04:58:08 44° NE 05:03:52 10° SE
PAYLOAD A 4.4 04:57:29 10° NNE 05:02:12 59° E 05:07:01 10° S
Cosmos 1933 3.7 04:58:09 10° S 05:02:12 65° E 05:06:14 10° NNE
Cosmos 2322 Rocket 4.4 04:59:02 10° SSE 05:03:40 27° ESE 05:08:20 10° NE
Cosmos 1605 Rocket 4.1 04:57:34 10° S 05:03:41 76° E 05:09:46 10° N
Cosmos 1862 3.1 04:59:46 10° N 05:03:44 76° W 05:07:43 10° S
Okean-O 3.5 05:00:34 10° NNE 05:04:54 51° E 05:09:12 10° S
CZ-4B R/B 4.5 05:07:33 10° N 05:11:42 39° WNW 05:11:58 39° W
Meteor 2-17 Rocket 4.4 05:05:42 10° S 05:11:44 85° E 05:17:50 10° N
Cosmos 1733 Rocket 4.1 05:10:02 10° N 05:14:15 47° ENE 05:18:29 10° SSE
Cosmos 1980 Rocket 2.1 05:10:01 10° SSW 05:15:42 78° WNW 05:21:23 10° NNE
SJ 16-02 1.2 05:11:59 10° SSW 05:16:23 80° WNW 05:20:50 10° NNE
Cosmos 1048 Rocket 4.2 05:12:06 10° NNW 05:17:16 71° ENE 05:22:22 10° SSE
COSMO-SKYMED 1 2.5 05:15:10 10° SSE 05:19:30 86° WSW 05:23:52 10° NNW
Cosmos 158 Rocket 3.8 05:16:15 10° NNW 05:21:15 69° WSW 05:26:22 10° S
Aureole 1 Rocket 4.3 05:14:58 10° NNW 05:22:07 48° W 05:27:42 10° S
Meteor 2-10 Rocket 3.8 05:20:58 14° SW 05:24:59 39° WNW 05:29:40 10° N
Landsat 4 3.9 05:21:41 10° SSE 05:25:23 69° ENE 05:29:06 10° N
Meteor 1-31 Rocket 4.4 05:24:10 10° NNW 05:25:52 19° NW 05:25:52 19° NW
Feng Yun 1-1 Rocket 4.2 05:26:36 10° N 05:32:08 77° WNW 05:37:48 10° SSW
Cosmos 1125 Rocket 3.4 05:27:34 10° SSW 05:32:43 69° WNW 05:37:55 10° NNE
ATLAS 5 CENTAUR R/B 2.6 05:30:38 10° SSW 05:34:56 51° ESE 05:39:38 10° NE
Hubble Space Telescope 3.2 05:33:12 10° SSW 05:35:17 13° S 05:37:21 10° SE
Cosmos 1441 Rocket 3.3 05:32:12 10° S 05:36:11 82° E 05:40:12 10° NNE
Cosmos 1633 4.4 05:33:04 10° N 05:36:26 34° ENE 05:39:47 10° SE
Cosmos 372 Rocket 3.9 05:32:31 10° SSW 05:37:33 61° WNW 05:42:37 10° NNE
Meteor 1-26 Rocket 4.4 05:34:21 10° S 05:40:16 85° E 05:46:09 10° N
CENTAUR R/B 4.2 05:40:44 16° WNW 05:44:06 20° WSW 05:49:49 10° SSW
Cosmos 1707 Rocket 4.5 05:41:49 10° SW 05:45:36 27° WNW 05:49:26 10° NNW
Cosmos 1697 Rocket 3.7 05:43:48 16° WSW 05:47:07 26° NW 05:51:49 10° N
SL-16 R/B 2.7 05:41:57 10° S 05:47:33 65° ESE 05:53:10 10° NNE
Okean O Rocket 3.5 05:45:54 10° NW 05:47:37 13° WNW 05:47:37 13° WNW
Cosmos 2123 Rocket 4.5 05:45:33 10° NNW 05:51:09 37° W 05:56:46 10° SSW
Lacrosse 5 rocket 1.9 05:50:28 15° WNW 05:53:16 36° SW 05:57:02 10° SSE
Meteor 1-14 Rocket 4.4 05:53:27 10° N 05:59:29 86° W 06:05:24 10° S
Cosmos 1437 Rocket 4.2 05:56:45 10° N 06:00:39 42° ENE 06:04:28 10° SSE
Geosat 4.1 05:59:36 10° SSE 06:04:31 56° WSW 06:09:28 10° NW
BREEZE M DEB (TANK) 3.6 06:07:20 10° NNW 06:08:26 13° N 06:09:38 10° NNE
Meteor 1-20 Rocket 4.3 06:03:51 10° N 06:09:43 85° W 06:15:29 10° S
Cosmos 2242 Rocket 4.2 06:07:17 10° SW 06:11:30 36° WNW 06:15:44 10° N
Cosmos 1269 Rocket 4.3 06:07:05 10° NNW 06:12:08 47° WSW 06:17:09 10° S
Cosmos 1606 2.6 06:10:18 10° S 06:14:08 78° W 06:17:57 10° N
BREEZE-M DEB (TANK) 3.6 06:14:21 10° NW 06:17:52 79° NNE 06:30:42 10° ESE
